Weather Roundup
Issued by NWS

Home | Current Version | Previous Version | Text Only | Print | Product List | Glossary On
Versions: 1 2 3 4 5 6 7 8 9 10 11 12 13 14 15 16 17 18 19 20 21 22 23 24 25 26 27 28 29 30 31 32 33 34 35 36 37 38 39 40 41 42 43 44 45 46 47 48 49 50
000
NZUS93 KARX 160510
HRRWXR

CURRENT HOURLY OBSERVATIONS ACROSS
MUCH OF THE UPPER MISSISSIPPI VALLEY
NATIONAL WEATHER SERVICE LA CROSSE WI
1200 AM CDT TUE SEP 16 2014


...SOUTHEAST MINNESOTA...


CITY           SKY/WX    TMP DP  RH WIND       PRES   REMARKS
ROCHESTER      CLEAR     45  39  79 W6        30.23S
ROCHESTER/MAYO FAIR      48  40  76 CALM      30.23F
WINONA         CLEAR     43  43 100 CALM      30.23S
AUSTIN         CLEAR     43  41  93 CALM      30.23S
ALBERT LEA     CLEAR     43  43 100 CALM      30.24S FOG
DODGE CENTER   CLEAR     41  39  93 W3        30.23S
PRESTON        CLEAR     45  43  93 W7        30.24S
OWATONNA       CLEAR     41  39  93 CALM      30.23S FOG
FARIBAULT      CLEAR     41  36  81 CALM      30.23S
$$

...ELSEWHERE IN MINNESOTA...


CITY           SKY/WX    TMP DP  RH WIND       PRES   REMARKS
MINNEAPOLIS    CLEAR     49  42  77 CALM      30.22S
INTNL FALLS    PTCLDY    40  38  93 S3        30.05F
DULUTH         CLEAR     46  35  65 SW9       30.14F
RED WING       CLEAR     43  39  87 N3        30.22R
REDWOOD FALLS  CLEAR     45  38  76 SW3       30.23R
MANKATO        CLEAR     46  41  81 CALM      30.23S
WORTHINGTON    CLEAR     43  41  93 CALM      30.25S
FAIRMONT       CLEAR     43  36  75 CALM      30.24S
$$

...SOUTHWEST WISCONSIN...


CITY           SKY/WX    TMP DP  RH WIND       PRES   REMARKS
LA CROSSE      CLEAR     48  44  86 CALM      30.22S
PRAIRIE DU CHI CLEAR     44  42  94 CALM      30.23S
BOSCOBEL       FOG       44  42  93 CALM      30.23S VSB 1/4
LONE ROCK      FOG       46  42  86 W3        30.22R VSB 1
PLATTEVILLE    CLEAR     43  42  96 CALM      30.22S
FORT MC COY    CLEAR     38  38 100 S3        30.22F
CAMP DOUGLAS   CLEAR     38  38 100 W5        30.21R WCI  35
VIROQUA        FAIR      42  42 100 NW3       30.22R
WIS DELLS      CLEAR     43  41  93 CALM      30.20F
$$

...ELSEWHERE IN WISCONSIN...


CITY           SKY/WX    TMP DP  RH WIND       PRES   REMARKS
MILWAUKEE      CLEAR     49  46  90 W5        30.17S
MADISON        CLEAR     46  43  89 CALM      30.20R
GREEN BAY      CLEAR     45  43  93 NW7       30.16S
EAU CLAIRE     CLEAR     41  38  89 SW3       30.21S
BLACK RVR FLS  FAIR      34  34 100 CALM      30.21S
MEDFORD        CLEAR     37  36  97 CALM      30.18F
WAUSAU         CLEAR     43  39  86 NW5       30.17S
WIS RAPIDS     CLEAR     41  39  93 CALM      30.21S
MARSHFIELD     CLEAR     42  38  85 W3        30.19S
RICE LAKE      CLEAR     39  38  97 CALM      30.22S
$$

...NORTHEAST IOWA...


CITY           SKY/WX    TMP DP  RH WIND       PRES   REMARKS
WATERLOO       CLEAR     43  41  93 CALM      30.24R
DUBUQUE        CLEAR     41  40  96 CALM      30.22S
DECORAH        PTCLDY    45  45 100 CALM      30.22S
MASON CITY     CLEAR     41  39  93 W3        30.26S
CHARLES CITY   CLEAR     43  41  93 CALM      30.25S
OELWEIN        CLEAR     45  43  93 CALM      30.25R
$$

...ELSEWHERE IN IOWA...


CITY           SKY/WX    TMP DP  RH WIND       PRES   REMARKS
DES MOINES     CLEAR     51  46  83 CALM      30.25S
IOWA CITY      CLEAR     47  46  97 W3        30.24R
FORT DODGE     CLEAR     43  41  93 CALM      30.25F
MARSHALLTOWN   CLEAR     43  42  97 NW3       30.24S
CEDAR RAPIDS   CLEAR     45  43  93 NW6       30.23R
$$

...NORTHERN ILLINOIS...


CITY           SKY/WX    TMP DP  RH WIND       PRES   REMARKS
CHICAGO-OHARE  PTCLDY    52  48  86 NW6       30.18R
DUPAGE         CLEAR     48  45  89 NW5       30.18S
CHICAGO-MIDWAY PTCLDY    54  50  86 NW9       30.17S
MOLINE         CLEAR     47  45  93 CALM      30.21S
ROCKFORD       CLEAR     45  43  93 W5        30.22R
STERLING       CLEAR     46  43  87 N3        30.21S
PEORIA         CLOUDY    55  50  83 N7        30.20R
$$

NOTE: "FAIR" INDICATES FEW OR NO CLOUDS BELOW 12,000 FEET WITH NO
SIGNIFICANT WEATHER AND/OR OBSTRUCTIONS TO VISIBILITY. WIND
SPEEDS ARE IN MILES-PER-HOUR.



USA.gov is the U.S. government's official web portal to all federal, state and local government web resources and services.